This is the latest recevied weather packets stored in our database for station/object W4CKA. If no packets are shown the sender has not sent any weather packets the latest 10 day(s).
| Time | Temp. | Humidity | Pressure | Rain* | Wind** | Luminosity | Snow |
|---|---|---|---|---|---|---|---|
| 1788047906 | 25° C | 85% | 1061.6 hPa | 0 mm | - | 1 W/m² | - |
| 1788047301 | 25.56° C | 87% | 1061.8 hPa | 0 mm | - | 9 W/m² | - |
| 1788046701 | 26.11° C | 83% | 1061.6 hPa | 0 mm | - | 18 W/m² | - |
| 1788046100 | 26.67° C | 81% | 1061.6 hPa | 0 mm | - | 21 W/m² | - |
| 1788045496 | 26.67° C | 76% | 1061.6 hPa | 0 mm | - | 27 W/m² | - |
| 1788044893 | 26.67° C | 77% | 1061.5 hPa | 0 mm | - | 32 W/m² | - |
| 1788044291 | 27.22° C | 75% | 1061.5 hPa | 0 mm | - | 32 W/m² | - |
| 1788043688 | 27.78° C | 74% | 1061.4 hPa | 0 mm | - | 73 W/m² | - |
| 1788043088 | 28.89° C | 70% | 1061.4 hPa | 0 mm | - | 49 W/m² | - |
| 1788042489 | 31.11° C | 64% | 1061.4 hPa | 0 mm | - | 133 W/m² | - |
| 1788041886 | 31.67° C | 64% | 1061.4 hPa | 0 mm | - | 168 W/m² | - |
| 1788041287 | 31.67° C | 64% | 1061.2 hPa | 0 mm | - | 174 W/m² | - |
| 1788040685 | 31.67° C | 63% | 1061.3 hPa | 0 mm | - | 197 W/m² | - |
| 1788040080 | 31.67° C | 63% | 1061.4 hPa | 0 mm | - | 265 W/m² | - |
| 1788039476 | 31.67° C | 59% | 1061.4 hPa | 0 mm | - | 278 W/m² | - |
| 1788038873 | 31.11° C | 56% | 1061.3 hPa | 0 mm | - | 290 W/m² | - |
| 1788038272 | 31.67° C | 58% | 1061.4 hPa | 0 mm | - | 321 W/m² | - |
| 1788037669 | 32.22° C | 58% | 1061.3 hPa | 0 mm | - | 319 W/m² | - |
| 1788037068 | 30.56° C | 63% | 1061.4 hPa | 0 mm | - | 346 W/m² | - |
| 1788036467 | 31.11° C | 63% | 1061.5 hPa | 0 mm | - | 396 W/m² | - |
| 1788035868 | 32.22° C | 60% | 1061.6 hPa | 0 mm | - | 454 W/m² | - |
| 1788035263 | 32.78° C | 56% | 1061.7 hPa | 0 mm | - | 257 W/m² | - |
| 1788034661 | 32.22° C | 60% | 1061.9 hPa | 0 mm | - | 486 W/m² | - |
| 1788034057 | 32.22° C | 57% | 1062 hPa | 0 mm | - | 551 W/m² | - |
| 1788033457 | 30.56° C | 68% | 1062.2 hPa | 0 mm | - | 581 W/m² | - |
* Rain latest hour (hover to see other rain measurements)
** Current wind speed in m/s (hover to see current wind gust speed)